Regional Weather Roundup
Issued by NWS

Home | Current Version | Previous Version | Graphics & Text | Print | Product List | Glossary On
Versions: 1 2 3 4 5 6 7 8 9 10 11 12 13 14 15 16 17 18 19 20 21 22 23 24 25 26 27
000
ASUS45 KBOU 182007
RWRCO

WEATHER ROUNDUP FOR COLORADO
NATIONAL WEATHER SERVICE DENVER/BOULDER CO
200 PM MDT FRI AUG 18 2017

NOTE: "FAIR" INDICATES FEW OR NO CLOUDS BELOW 12000 FEET WITH NO
SIGNIFICANT WEATHER AND/OR OBSTRUCTIONS TO VISIBILITY.

COZ001>005-013-030-031-182100-
...NORTHWEST COLORADO...

CITY           SKY/WX    TMP DP  RH WIND       PRES   REMARKS
CRAIG          FAIR      85  27  12 MISG      30.26F
HAYDEN         FAIR      81  32  17 W14G22    30.29F
MEEKER         FAIR      83  35  18 VRB6      30.26F
RABBIT EARS PA FAIR      63  34  34 W9G18     30.59S
STEAMBOAT SPGS FAIR      79  33  19 SW13      30.30F
WALDEN         FAIR      75  28  17 W12       30.40S
$$

COZ006>008-011-182100-
...WEST CENTRAL VALLEYS...

CITY           SKY/WX    TMP DP  RH WIND       PRES   REMARKS
GRAND JUNCTION FAIR      90  36  14 W12       30.15F
MONTROSE       FAIR      86  33  15 VRB6      30.23F
EAGLE          FAIR      84  32  15 SW20      30.28F
RIFLE          FAIR      90  28  11 W18       30.19F
DELTA          FAIR      91  32  12 SE3       30.19S
NUCLA          FAIR      90  27  10 W14G22    30.28F
$$

COZ017>023-064>068-182100-
...SOUTHWEST COLORADO...

CITY           SKY/WX    TMP DP  RH WIND       PRES   REMARKS
DURANGO        FAIR      86  26  11 W13G21    30.30F
CORTEZ         FAIR      88  28  11 VRB5      30.24F
PAGOSA SPRINGS FAIR      81  19  10 SW8G17    30.38F
TELLURIDE      CLOUDY    72  30  21 NW3       30.51S
WOLF CREEK PAS CLOUDY    55  30  38 W6        30.75S
$$

COZ009-010-012-014-032>034-037-058>063-182100-
...CENTRAL COLORADO...

CITY           SKY/WX    TMP DP  RH WIND       PRES   REMARKS
ASPEN          PTSUNNY   80  32  17 VRB6      30.35F
BUENA VISTA    FAIR      78  31  17 SE8       30.37F
COPPER MTN     PTSUNNY   59  30  33 W15       30.69F
BERTHOUD PASS  PTSUNNY   50  45  81 W23G32    30.71S
COTTONWOOD PAS PTSUNNY   72  21  15 NW5       30.52F
GUNNISON       FAIR      77  36  22 SW8       30.37F
KREMMLING      FAIR      84  30  14 SE6       30.34F
LEADVILLE      FAIR      68  23  18 W9G20     30.48F
MONARCH PASS   FAIR      59  23  25 W16G25    30.80S
SALIDA         CLOUDY    80  30  16 S9        30.40F
SUNLIGHT       FAIR      59  32  36 SW6       30.63F
WILKERSON PASS FAIR      63  30  29 SW8       30.66S
$$

COZ069>075-182100-
...SAN LUIS VALLEY/SANGRE DE CRISTO MOUNTAINS...

CITY           SKY/WX    TMP DP  RH WIND       PRES   REMARKS
ALAMOSA        FAIR      77  31  18 SE5       30.37F
DEL NORTE      FAIR      78  35  21 S8        30.40S
LA VETA PASS   NOT AVBL
SAGUACHE       FAIR      77  36  22 S3        30.39F
$$

COZ035-036-038>040-182100-
...NORTHERN COLORADO FRONT RANGE...

CITY           SKY/WX    TMP DP  RH WIND       PRES   REMARKS
DENVER INTL AP FAIR      85  39  19 VRB3      30.17F
DMNS CITY PARK   N/A     86  37  17 E8G18     30.17S
AURORA         MOSUNNY   83  40  21 E5        30.19F
FRONT RANGE AP FAIR      84  37  18 N7        30.19F
ERIE MUNI ARPT FAIR      85  37  18 N5        30.20F
BOULDER MUN AP FAIR      82  43  24 CALM      30.17F
CENTENNIAL     FAIR      85  35  16 N12G17    30.20F
BROOMFIELD     NOT AVBL
FORT COLLINS   FAIR      84  47  27 E8        30.16F HAZE
LONGMONT       FAIR      86  45  23 E5        30.17F
$$

COZ041-046-047-076>085-087-088-182100-
...PIKES PEAK/PALMER DIVIDE AND SOUTHERN FOOTHILLS...

CITY           SKY/WX    TMP DP  RH WIND       PRES   REMARKS
COLO. SPRINGS  FAIR      83  43  24 SE10G21   30.26S
A. F. ACADEMY  FAIR      81  42  25 SE12G25   30.25F
SCHRIEVER AFB  FAIR      80  41  25 S10       30.26F
CHEYENNE MTN   FAIR      77  42  28 SE14G20   30.25F
ELLICOTT       FAIR     N/A N/A N/A SW14      30.24F
FALCON         FAIR      79  43  27 S14       30.31S
FORT CARSON    FAIR      83  45  26 SE12      30.22F
LIMON          FAIR      82  45  27 E5        30.20F
MONUMENT HILL  FAIR      77  41  27 CALM      30.32S
CANON CITY     SUNNY     90  43  19 W7        30.17S
WALSENBURG     FAIR      88  34  14 NE7       30.23F
TRINIDAD       FAIR      85  36  17 VRB5      30.23F
$$

COZ042>045-048>051-090-091-182100-
...NORTHEAST COLORADO...

CITY           SKY/WX    TMP DP  RH WIND       PRES   REMARKS
GREELEY ARPT   FAIR      83  49  30 CALM      30.15F
AKRON          FAIR      83  44  25 VRB5      30.16F
BURLINGTON     FAIR      85  53  33 N9        30.13S
WRAY           NOT AVBL
YUMA           FAIR      81  32  17 NE6       30.12F
STERLING       FAIR      84  50  30 S5        30.11F
HOLYOKE        FAIR      88  43  20 NE3       30.10F
FORT MORGAN    FAIR      84  41  21 S5        30.15F
$$

COZ086-089-092>099-182100-
...SOUTHEAST COLORADO...

CITY           SKY/WX    TMP DP  RH WIND       PRES   REMARKS
PUEBLO         FAIR      90  42  18 SE13      30.13F
LA JUNTA       FAIR      89  50  26 SW5       30.12F
LAMAR          FAIR      90  54  29 SW5       30.06F
SPRINGFIELD      N/A     89  53  29 VRB7      30.11F
$$




USA.gov is the U.S. government's official web portal to all federal, state and local government web resources and services.